Hourly Data Report for May 13, 2021

STE-ANNE-DE-BELLEVUE 1
QUEBEC
Current Station Operator: ECCC - MSC

45°25'38.000" N
73°55'45.000" W
39.00 m
702FHL8
71377
WVQ

Download Data

Hourly Data (May 2021)
Hourly Data Report for May 13, 2021
TIME
LST
Temp Definition
°C
Dew Point Definition
°C
Rel Hum Definition
%
Precip. Amount Definition
mm

Wind Dir Definition
10's deg

Wind Spd Definition
km/h
Visibility Definition
km
Stn Press Definition
kPa
Hmdx Definition


Wind Chill Definition


Weather Definition


00:00 9.8 -1.5 45 0.0 28 9   101.65     LegendNANA
01:00 7.3 -2.0 52 0.0 0 1   101.66     LegendNANA
02:00 4.8 0.3 73 0.0 26 2   101.68     LegendNANA
03:00 4.1 0.4 77 0.0 25 5   101.70     LegendNANA
04:00 6.4 1.2 69 0.0 21 5   101.71     LegendNANA
05:00 5.7 0.4 69 0.0 23 6   101.76     LegendNANA
06:00 8.0 0.4 58 0.0 24 7   101.81     LegendNANA
07:00 10.1 0.6 52 0.0 23 7   101.84     LegendNANA
08:00 13.3 0.9 43 0.0 25 6   101.86     LegendNANA
09:00 16.0 1.4 37 0.0 23 8   101.83     LegendNANA
10:00 17.9 0.8 32 0.0 31 7   101.81     LegendNANA
11:00 17.9 -2.5 25 0.0 35 5   101.79     LegendNANA
12:00 19.3 -1.1 25 0.0 25 14   101.72     LegendNANA
13:00 20.4 -0.8 24 0.0 25 18   101.65     LegendNANA
14:00 20.1 0.0 26 0.0 27 16   101.59     LegendNANA
15:00 19.7 -0.3 26 0.0 20 3   101.52     LegendNANA
16:00 19.9 -1.0 25 0.0 29 9   101.47     LegendNANA
17:00 19.7 1.6 30 0.0 25 14   101.49     LegendNANA
18:00 19.6 1.0 29 0.0 28 15   101.49     LegendNANA
19:00 16.7 1.9 37 0.0 29 7   101.50     LegendNANA
20:00 16.9 1.6 36 0.0 27 11   101.53     LegendNANA
21:00 15.5 2.6 42 0.0 30 7   101.59     LegendNANA
22:00 13.4 4.5 55 0.0 4 7   101.67     LegendNANA
23:00 10.8 5.3 69 0.0 0 1   101.65     LegendNANA

Notes on Data Quality.

Legend

  • E = Estimated
  • M = Missing
  • NA = Not Available*
  • [empty] = Indicates an unobserved value
Date modified: